This is the latest recevied weather packets stored in our database for station/object OE9SAU-10. If no packets are shown the sender has not sent any weather packets the latest 10 day(s).
| Time | Temp. | Humidity | Pressure | Rain* | Wind** | Luminosity | Snow |
|---|---|---|---|---|---|---|---|
| 1777619894 | 12.22° C | 50% | 1028.5 hPa | - | - | - | - |
| 1777618994 | 11.67° C | 50% | 1028.5 hPa | - | - | - | - |
| 1777618094 | 10.56° C | 46% | 1028.7 hPa | - | - | - | - |
| 1777617194 | 10° C | 50% | 1028.6 hPa | - | - | - | - |
| 1777616294 | 9.44° C | 49% | 1028.5 hPa | - | - | - | - |
| 1777615394 | 8.89° C | 47% | 1028.5 hPa | - | - | - | - |
| 1777614494 | 8.89° C | 45% | 1028.5 hPa | - | - | - | - |
| 1777613594 | 8.89° C | 44% | 1028.2 hPa | - | - | - | - |
| 1777612694 | 8.89° C | 45% | 1028.3 hPa | - | - | - | - |
| 1777611794 | 8.89° C | 44% | 1028.2 hPa | - | - | - | - |
| 1777610894 | 9.44° C | 43% | 1028 hPa | - | - | - | - |
| 1777609994 | 9.44° C | 43% | 1027.8 hPa | - | - | - | - |
| 1777609094 | 9.44° C | 42% | 1027.8 hPa | - | - | - | - |
| 1777608194 | 9.44° C | 42% | 1027.8 hPa | - | - | - | - |
| 1777607294 | 10° C | 42% | 1027.7 hPa | - | - | - | - |
| 1777606394 | 10° C | 42% | 1027.7 hPa | - | - | - | - |
| 1777605493 | 10° C | 41% | 1027.6 hPa | - | - | - | - |
| 1777604593 | 10.56° C | 41% | 1027.6 hPa | - | - | - | - |
| 1777603693 | 10.56° C | 41% | 1027.7 hPa | - | - | - | - |
| 1777602793 | 10.56° C | 41% | 1027.6 hPa | - | - | - | - |
| 1777601893 | 11.11° C | 41% | 1027.7 hPa | - | - | - | - |
| 1777600993 | 11.11° C | 40% | 1027.7 hPa | - | - | - | - |
| 1777600093 | 11.11° C | 40% | 1027.4 hPa | - | - | - | - |
| 1777599193 | 11.67° C | 40% | 1027.3 hPa | - | - | - | - |
| 1777598293 | 11.67° C | 40% | 1027.3 hPa | - | - | - | - |
* Rain since midnight (hover to see other rain measurements)
** Current wind speed in m/s (hover to see current wind gust speed)